period_start,C,m1,H,J0,J1,J2,J3,J4,J5,JA,JB,JC,JD,JJ,JK,JN,#
2014-08-07 00:02:06,-0.00,0.80,0.00,23.61,27.80,30.13,9.42,41.25,1005.81,2036.15,3176.00,3065.58,3323.22,500.01,490.31,27.01,0000 0000 0000 0000 000000
2014-08-07 00:07:07,0.00,0.80,0.00,23.64,27.82,30.16,9.46,41.41,1005.83,2036.06,3175.99,3065.17,3323.04,499.75,490.29,27.05,0000 0000 0000 0000 000000
2014-08-07 00:12:08,-0.00,0.80,0.00,23.66,27.85,30.16,9.41,41.28,1005.83,2036.02,3175.98,3065.04,3323.00,499.82,490.31,27.10,0000 0000 0000 0000 000000
2014-08-07 00:17:09,-0.00,0.80,0.00,23.70,27.86,30.18,9.44,41.25,1005.87,2036.00,3175.98,3065.00,3323.00,499.56,490.02,27.14,0000 0000 0000 0000 000000
2014-08-07 00:22:10,0.00,0.80,0.00,23.74,27.88,30.20,9.50,41.23,1005.87,2036.00,3175.95,3065.00,3322.99,499.88,490.14,27.18,0000 0000 0000 0000 000000
2014-08-07 00:27:12,0.01,0.80,0.00,23.78,27.90,30.23,9.44,41.29,1005.87,2036.00,3175.65,3065.00,3322.93,499.84,489.95,27.22,0000 0000 0000 0000 000000
2014-08-07 00:32:12,0.02,0.80,0.00,23.80,27.92,30.24,9.43,41.27,1005.87,2036.00,3175.10,3064.99,3322.49,499.82,489.97,27.26,0000 0000 0000 0000 000000
2014-08-07 00:37:14,0.01,0.80,0.00,23.81,27.95,30.27,9.38,41.01,1005.88,2036.00,3175.02,3064.78,3322.06,499.71,489.76,27.31,0000 0000 0000 0000 000000
2014-08-07 00:42:15,0.01,0.80,0.00,23.85,27.97,30.29,9.47,41.23,1005.89,2035.97,3174.99,3064.28,3322.01,500.20,490.30,27.35,0000 0000 0000 0000 000000
2014-08-07 00:47:16,0.00,0.80,0.00,23.89,28.00,30.32,9.49,41.27,1005.89,2035.92,3174.89,3064.02,3321.98,500.31,490.29,27.39,0000 0000 0000 0000 000000
2014-08-07 00:52:17,-0.01,0.80,0.00,23.93,28.02,30.34,9.39,41.17,1005.91,2035.81,3174.73,3064.00,3321.92,499.47,489.45,27.43,0000 0000 0000 0000 000000
2014-08-07 00:57:18,0.01,0.80,0.00,23.96,28.05,30.36,9.47,41.17,1005.90,2035.78,3174.21,3064.00,3321.56,500.05,489.81,27.47,0000 0000 0000 0000 000000
2014-08-07 01:02:20,-0.03,0.80,0.00,23.99,28.07,30.38,9.41,41.19,1005.92,2035.44,3174.02,3063.98,3321.14,499.74,489.58,27.52,0000 0000 0000 0000 000000
2014-08-07 01:07:21,-0.02,0.80,0.00,24.01,28.10,30.41,9.44,41.25,1006.06,2035.10,3174.00,3063.86,3321.00,499.80,489.84,27.56,0000 0000 0000 0000 000000
2014-08-07 01:12:21,0.01,0.80,0.00,24.04,28.12,30.44,9.48,41.19,1006.16,2035.01,3174.00,3063.39,3320.99,500.19,490.13,27.60,0000 0000 0000 0000 000000
2014-08-07 01:17:23,0.01,0.80,0.00,24.08,28.15,30.46,9.50,41.31,1006.30,2035.00,3173.96,3063.05,3320.83,499.79,489.57,27.64,0000 0000 0000 0000 000000
2014-08-07 01:22:24,0.01,0.80,0.00,24.09,28.17,30.48,9.44,41.15,1006.31,2035.00,3173.77,3063.00,3320.29,499.73,489.64,27.68,0000 0000 0000 0000 000000
2014-08-07 01:27:26,0.01,0.80,0.00,24.10,28.19,30.51,9.44,41.33,1006.35,2034.99,3173.20,3062.96,3320.03,499.52,489.45,27.73,0000 0000 0000 0000 000000
2014-08-07 01:32:27,0.00,0.80,0.00,24.13,28.21,30.53,9.46,41.09,1006.33,2034.88,3173.02,3062.68,3319.99,500.13,490.05,27.77,0000 0000 0000 0000 000000
2014-08-07 01:37:28,-0.04,0.80,0.00,24.15,28.24,30.55,9.52,41.16,1006.32,2034.55,3173.00,3062.16,3319.95,500.12,489.78,27.81,0000 0000 0000 0000 000000
2014-08-07 01:42:29,-0.02,0.80,0.00,24.19,28.26,30.58,9.36,40.98,1006.34,2034.18,3172.96,3062.03,3319.65,499.91,489.71,27.85,0000 0000 0000 0000 000000
2014-08-07 01:47:30,0.01,0.80,0.00,24.22,28.28,30.60,9.47,41.21,1006.34,2034.06,3172.60,3062.00,3319.10,499.98,489.58,27.89,0000 0000 0000 0000 000000
2014-08-07 01:52:31,0.00,0.80,0.00,24.24,28.31,30.63,9.41,41.02,1006.36,2034.01,3172.41,3061.99,3319.00,499.94,489.36,27.93,0000 0000 0000 0000 000000
2014-08-07 01:57:32,0.00,0.80,0.00,24.27,28.33,30.64,9.48,41.15,1006.36,2034.00,3172.16,3061.94,3318.99,500.11,489.82,27.98,0000 0000 0000 0000 000000
2014-08-07 02:02:33,0.02,0.80,0.00,24.28,28.35,30.68,9.45,41.06,1006.36,2034.00,3172.01,3061.57,3318.94,500.07,489.59,28.02,0000 0000 0000 0000 000000
2014-08-07 02:07:34,0.01,0.80,0.00,24.30,28.38,30.70,9.45,41.10,1006.36,2034.00,3172.00,3061.18,3318.77,499.92,489.37,28.06,0000 0000 0000 0000 000000
2014-08-07 02:12:35,0.01,0.80,0.00,24.37,28.40,30.71,9.47,41.02,1006.36,2033.98,3171.94,3061.02,3318.18,500.14,489.60,28.10,0000 0000 0000 0000 000000
2014-08-07 02:17:37,-0.00,0.80,0.00,24.38,28.43,30.73,9.41,41.05,1006.38,2033.88,3171.62,3060.99,3318.00,499.80,489.38,28.14,0000 0000 0000 0000 000000
2014-08-07 02:22:38,-0.03,0.80,0.00,24.42,28.45,30.76,9.49,41.15,1006.39,2033.56,3171.25,3060.98,3317.98,500.26,489.68,28.19,0000 0000 0000 0000 000000
2014-08-07 02:27:38,-0.01,0.80,0.00,24.44,28.47,30.78,9.40,41.13,1006.51,2033.23,3171.01,3060.75,3317.86,500.03,489.47,28.23,0000 0000 0000 0000 000000
2014-08-07 02:32:40,0.01,0.80,0.00,24.48,28.50,30.81,9.43,41.04,1006.68,2033.04,3171.00,3060.22,3317.38,499.99,489.45,28.27,0000 0000 0000 0000 000000
2014-08-07 02:37:41,0.00,0.80,0.00,24.52,28.53,30.83,9.48,41.02,1006.72,2033.01,3170.94,3060.01,3317.01,500.18,489.49,28.31,0000 0000 0000 0000 000000
2014-08-07 02:42:42,0.01,0.80,0.00,24.56,28.56,30.85,9.37,41.40,1006.83,2033.00,3170.57,3060.00,3317.00,499.45,488.82,28.35,0000 0000 0000 0000 000000
2014-08-07 02:47:43,0.01,0.80,0.00,24.60,28.58,30.88,9.39,41.12,1006.85,2033.00,3170.04,3059.97,3316.91,499.89,489.10,28.40,0000 0000 0000 0000 000000
2014-08-07 02:52:45,0.02,0.80,0.00,24.64,28.61,30.91,9.43,41.05,1006.85,2033.00,3170.00,3059.69,3316.44,500.11,489.23,28.44,0000 0000 0000 0000 000000
2014-08-07 02:57:46,0.01,0.80,0.00,24.68,28.64,30.94,9.34,41.08,1006.85,2032.98,3169.96,3059.09,3316.02,499.28,488.28,28.48,0000 0000 0000 0000 000000
2014-08-07 03:02:48,-0.00,0.80,0.00,24.72,28.67,30.97,9.41,41.03,1006.85,2032.92,3169.91,3059.01,3316.00,499.75,488.85,28.52,0000 0000 0000 0000 000000
2014-08-07 03:07:49,-0.02,0.80,0.00,24.76,28.70,31.00,9.41,41.07,1006.86,2032.62,3169.28,3058.99,3315.93,499.76,488.89,28.56,0000 0000 0000 0000 000000
2014-08-07 03:12:50,-0.02,0.80,0.00,24.80,28.73,31.03,9.44,41.13,1006.87,2032.09,3169.01,3058.65,3315.18,500.35,489.61,28.60,0000 0000 0000 0000 000000
2014-08-07 03:17:51,0.00,0.80,0.00,24.82,28.76,31.06,9.43,41.02,1006.89,2032.00,3169.00,3058.25,3315.01,499.90,488.86,28.65,0000 0000 0000 0000 000000
2014-08-07 03:22:52,0.00,0.80,0.00,24.84,28.79,31.10,9.49,41.01,1006.90,2032.00,3168.89,3058.01,3315.00,500.47,489.48,28.69,0000 0000 0000 0000 000000
2014-08-07 03:27:53,0.02,0.80,0.00,24.87,28.83,31.13,9.51,41.11,1006.87,2032.00,3168.25,3057.99,3314.78,500.46,489.36,28.73,0000 0000 0000 0000 000000
2014-08-07 03:32:54,0.02,0.80,0.00,24.89,28.86,31.16,9.45,41.06,1006.93,2032.00,3168.01,3057.79,3314.11,499.86,488.73,28.77,0000 0000 0000 0000 000000
2014-08-07 03:37:55,0.01,0.81,0.00,24.91,28.89,31.19,9.42,40.93,1007.03,2031.98,3167.97,3057.22,3314.00,499.79,488.88,28.81,0000 0000 0000 0000 000000
2014-08-07 03:42:57,-0.00,0.81,0.00,24.93,28.92,31.23,9.40,40.94,1007.14,2031.88,3167.92,3057.01,3313.97,499.70,488.65,28.86,0000 0000 0000 0000 000000
2014-08-07 03:47:58,-0.05,0.81,0.00,24.99,28.96,31.25,9.44,41.10,1007.25,2031.40,3167.32,3057.00,3313.48,499.93,488.78,28.90,0000 0000 0000 0000 000000
2014-08-07 03:52:59,0.00,0.80,0.00,25.02,28.99,31.28,9.37,40.94,1007.20,2031.08,3167.01,3056.82,3313.03,499.81,488.63,28.94,0000 0000 0000 0000 000000
2014-08-07 03:58:00,0.02,0.80,0.00,25.06,29.02,31.31,9.40,40.89,1007.32,2031.01,3166.84,3056.14,3312.98,500.46,489.28,28.98,0000 0000 0000 0000 000000
2014-08-07 04:03:01,0.02,0.80,0.00,25.09,29.06,31.33,9.37,41.04,1007.34,2031.00,3166.37,3056.00,3312.58,499.84,488.61,29.02,0000 0000 0000 0000 000000
2014-08-07 04:08:03,0.01,0.81,0.00,25.13,29.09,31.37,9.50,41.02,1007.34,2030.98,3166.02,3055.99,3312.06,500.16,488.73,29.07,0000 0000 0000 0000 000000
2014-08-07 04:13:04,0.00,0.81,0.00,25.15,29.12,31.41,9.39,40.99,1007.33,2030.96,3165.99,3055.82,3311.99,499.67,488.28,29.11,0000 0000 0000 0000 000000
2014-08-07 04:18:06,-0.01,0.81,0.00,25.18,29.16,31.43,9.46,40.98,1007.34,2030.76,3165.96,3055.31,3311.94,500.57,489.11,29.15,0000 0000 0000 0000 000000
2014-08-07 04:23:07,-0.02,0.80,0.00,25.23,29.19,31.47,9.40,40.92,1007.34,2030.18,3165.19,3055.00,3311.25,499.80,488.32,29.19,0000 0000 0000 0000 000000
2014-08-07 04:28:08,0.00,0.80,0.00,25.25,29.21,31.49,9.45,41.09,1007.34,2030.04,3164.99,3054.82,3310.99,499.91,488.40,29.23,0000 0000 0000 0000 000000
2014-08-07 04:33:09,0.03,0.81,0.00,25.28,29.25,31.52,9.42,41.07,1007.37,2030.00,3164.58,3054.12,3310.69,500.30,488.63,29.27,0000 0000 0000 0000 000000
2014-08-07 04:38:11,0.02,0.81,0.00,25.30,29.28,31.55,9.37,40.97,1007.46,2030.00,3164.11,3054.00,3310.10,500.07,488.56,29.32,0000 0000 0000 0000 000000
2014-08-07 04:43:12,0.00,0.81,0.00,25.31,29.31,31.59,9.44,40.97,1007.61,2029.99,3164.01,3053.99,3310.00,500.49,488.94,29.36,0000 0000 0000 0000 000000
2014-08-07 04:48:13,0.00,0.81,0.00,25.34,29.34,31.62,9.39,40.98,1007.69,2029.93,3163.99,3053.82,3309.92,499.88,488.57,29.40,0000 0000 0000 0000 000000
2014-08-07 04:53:14,-0.01,0.81,0.00,25.38,29.38,31.65,9.35,41.02,1007.72,2029.46,3163.44,3053.09,3309.19,499.88,488.35,29.44,0000 0000 0000 0000 000000
2014-08-07 04:58:15,-0.02,0.81,0.00,25.35,29.41,31.69,9.43,40.86,1007.79,2029.11,3163.05,3053.00,3309.00,500.06,488.67,29.48,0000 0000 0000 0000 000000
2014-08-07 05:03:16,0.00,0.81,0.00,25.32,29.43,31.73,9.51,41.01,1007.82,2029.04,3163.00,3053.00,3309.00,500.34,488.97,29.53,0000 0000 0000 0000 000000
2014-08-07 05:08:17,-0.00,0.81,0.00,25.29,29.45,31.78,9.46,40.88,1007.81,2029.01,3163.00,3052.96,3308.90,500.21,488.83,29.57,0000 0000 0000 0000 000000
2014-08-07 05:13:18,0.04,0.81,0.00,25.30,29.47,31.80,9.46,41.06,1007.80,2029.00,3162.44,3052.44,3308.35,500.30,489.00,29.61,0000 0000 0000 0000 000000
2014-08-07 05:18:19,0.01,0.81,0.00,25.34,29.50,31.80,9.46,41.04,1007.82,2029.00,3162.07,3052.05,3308.02,500.12,488.72,29.65,0000 0000 0000 0000 000000
2014-08-07 05:23:21,0.00,0.81,0.00,25.37,29.51,31.81,9.42,41.07,1007.83,2028.99,3162.01,3052.00,3308.00,499.85,488.33,29.69,0000 0000 0000 0000 000000
2014-08-07 05:28:22,0.00,0.81,0.00,25.41,29.54,31.81,9.41,40.98,1007.81,2028.98,3161.97,3051.99,3307.92,500.43,488.91,29.74,0000 0000 0000 0000 000000
2014-08-07 05:33:23,-0.02,0.81,0.00,25.43,29.56,31.82,9.45,40.88,1007.83,2028.81,3161.84,3051.90,3307.37,500.07,488.41,29.78,0000 0000 0000 0000 000000
2014-08-07 05:38:24,0.00,0.81,0.00,25.47,29.58,31.83,9.43,40.97,1007.83,2028.38,3161.21,3051.31,3307.04,499.95,488.21,29.82,0000 0000 0000 0000 000000
2014-08-07 05:43:25,-0.01,0.81,0.00,25.54,29.60,31.85,9.39,41.00,1007.83,2028.14,3161.01,3051.04,3307.00,499.80,488.14,29.86,0000 0000 0000 0000 000000
2014-08-07 05:48:26,-0.00,0.81,0.00,25.57,29.63,31.88,9.42,41.06,1007.83,2028.03,3160.99,3051.00,3306.85,500.28,488.37,29.90,0000 0000 0000 0000 000000
2014-08-07 05:53:28,-0.00,0.81,0.00,25.61,29.66,31.88,9.39,41.06,1007.84,2028.00,3160.98,3050.98,3306.52,499.73,487.82,29.95,0000 0000 0000 0000 000000
2014-08-07 05:58:29,0.01,0.81,0.00,25.64,29.68,31.91,9.45,41.12,1007.83,2028.00,3160.91,3050.91,3306.09,499.98,487.93,29.99,0000 0000 0000 0000 000000
2014-08-07 06:03:30,0.04,0.81,0.00,25.70,29.71,31.94,9.40,41.13,1007.83,2028.00,3160.30,3050.25,3306.01,499.92,487.83,30.03,0000 0000 0000 0000 000000
2014-08-07 06:08:31,0.00,0.81,0.00,25.76,29.74,31.96,9.44,41.02,1007.85,2027.99,3160.01,3050.01,3305.95,500.42,488.02,30.07,0000 0000 0000 0000 000000
2014-08-07 06:13:32,0.01,0.81,0.00,25.78,29.77,31.98,9.40,41.00,1007.91,2027.97,3159.96,3050.00,3305.48,499.92,487.74,30.11,0000 0000 0000 0000 000000
2014-08-07 06:18:34,0.04,0.81,0.00,25.82,29.80,32.02,9.41,40.93,1008.18,2027.95,3159.14,3049.61,3305.03,499.87,487.81,30.15,0000 0000 0000 0000 000000
2014-08-07 06:23:35,0.01,0.81,0.00,25.85,29.83,32.04,9.46,41.01,1008.29,2027.96,3159.00,3049.06,3304.99,500.20,488.01,30.20,0000 0000 0000 0000 000000
2014-08-07 06:28:36,0.01,0.81,0.00,25.89,29.86,32.08,9.43,40.96,1008.31,2027.82,3158.59,3049.01,3304.71,499.86,487.64,30.24,0000 0000 0000 0000 000000
2014-08-07 06:33:37,-0.03,0.81,0.00,25.92,29.89,32.12,9.35,41.06,1008.31,2027.36,3158.02,3048.94,3304.07,499.62,487.60,30.28,0000 0000 0000 0000 000000
2014-08-07 06:38:38,0.00,0.81,0.00,25.96,29.92,32.15,9.36,40.80,1008.31,2027.11,3157.94,3048.28,3304.00,499.89,487.75,30.32,0000 0000 0000 0000 000000
2014-08-07 06:43:39,0.01,0.81,0.00,26.00,29.95,32.18,9.41,40.94,1008.32,2027.02,3157.45,3048.01,3303.82,499.82,487.72,30.36,0000 0000 0000 0000 000000
2014-08-07 06:48:41,0.01,0.81,0.00,26.05,29.98,32.22,9.38,40.77,1008.36,2027.01,3157.03,3047.98,3303.19,499.83,487.48,30.41,0000 0000 0000 0000 000000
2014-08-07 06:53:42,0.02,0.81,0.00,26.08,30.01,32.24,9.34,40.70,1008.40,2027.00,3156.94,3047.67,3303.00,500.17,487.57,30.45,0000 0000 0000 0000 000000
2014-08-07 06:58:43,0.04,0.82,0.00,26.11,30.04,32.27,9.36,40.88,1008.63,2026.98,3156.16,3047.04,3302.59,499.76,487.53,30.49,0000 0000 0000 0000 000000
2014-08-07 07:03:44,0.00,0.82,0.00,26.17,30.06,32.31,9.43,40.73,1008.72,2026.96,3156.00,3046.98,3302.04,500.24,487.93,30.53,0000 0000 0000 0000 000000
2014-08-07 07:08:45,-0.00,0.82,0.00,26.21,30.10,32.33,9.40,40.79,1008.80,2026.77,3155.78,3046.70,3301.99,500.09,487.66,30.57,0000 0000 0000 0000 000000
2014-08-07 07:13:47,-0.00,0.82,0.00,26.26,30.13,32.36,9.34,40.86,1008.80,2026.51,3155.12,3046.07,3301.73,500.01,487.45,30.61,0000 0000 0000 0000 000000
2014-08-07 07:18:48,-0.02,0.82,0.00,26.32,30.16,32.40,9.35,40.69,1008.80,2026.12,3154.99,3046.00,3301.08,500.06,487.55,30.66,0000 0000 0000 0000 000000
2014-08-07 07:23:49,0.01,0.81,0.00,26.36,30.19,32.43,9.36,40.70,1008.80,2026.03,3154.50,3045.87,3300.99,499.67,487.31,30.70,0000 0000 0000 0000 000000
2014-08-07 07:28:50,0.03,0.82,0.00,26.37,30.22,32.46,9.38,40.66,1008.80,2026.00,3154.04,3045.24,3300.82,499.83,487.04,30.74,0000 0000 0000 0000 000000
2014-08-07 07:33:52,0.01,0.82,0.00,26.42,30.25,32.49,9.41,40.73,1008.80,2026.00,3153.99,3045.03,3300.14,499.93,487.16,30.78,0000 0000 0000 0000 000000
2014-08-07 07:38:53,0.01,0.82,0.00,26.47,30.28,32.53,9.38,40.78,1008.82,2025.99,3153.51,3044.95,3299.99,500.02,487.13,30.82,0000 0000 0000 0000 000000
2014-08-07 07:43:54,0.03,0.82,0.00,26.50,30.31,32.56,9.37,40.66,1008.82,2025.94,3153.03,3044.41,3299.64,499.81,486.96,30.87,0000 0000 0000 0000 000000
2014-08-07 07:48:55,-0.02,0.82,0.00,26.55,30.35,32.59,9.42,40.87,1008.85,2025.74,3152.96,3044.01,3299.04,499.86,486.80,30.91,0000 0000 0000 0000 000000
2014-08-07 07:53:56,-0.04,0.82,0.00,26.60,30.38,32.62,9.38,40.84,1008.91,2025.17,3152.32,3043.92,3298.95,500.03,487.22,30.95,0000 0000 0000 0000 000000
2014-08-07 07:58:57,0.03,0.82,0.00,26.66,30.41,32.65,9.38,40.72,1009.04,2025.03,3152.00,3043.22,3298.20,499.73,486.80,30.99,0000 0000 0000 0000 000000
2014-08-07 08:03:59,0.01,0.82,0.00,26.70,30.45,32.68,9.40,40.82,1009.14,2025.00,3151.73,3043.01,3298.00,500.26,487.21,31.03,0000 0000 0000 0000 000000
2014-08-07 08:09:00,0.02,0.82,0.00,26.77,30.49,32.73,9.39,40.58,1009.22,2025.00,3151.06,3042.90,3297.79,500.28,487.29,31.08,0000 0000 0000 0000 000000
2014-08-07 08:14:01,0.03,0.82,0.00,26.80,30.52,32.76,9.35,40.66,1009.27,2024.99,3150.99,3042.23,3297.10,500.07,486.95,31.12,0000 0000 0000 0000 000000
2014-08-07 08:19:03,0.00,0.82,0.00,26.86,30.56,32.79,9.49,40.65,1009.28,2024.87,3150.37,3042.00,3296.95,500.48,487.27,31.16,0000 0000 0000 0000 000000
2014-08-07 08:24:03,0.01,0.82,0.00,26.90,30.59,32.83,9.37,40.64,1009.29,2024.46,3149.62,3041.47,3296.21,499.69,486.41,31.20,0000 0000 0000 0000 000000
2014-08-07 08:29:05,-0.00,0.82,0.00,26.94,30.63,32.87,9.34,40.45,1009.29,2024.26,3149.04,3041.03,3296.00,500.01,486.75,31.24,0000 0000 0000 0000 000000
2014-08-07 08:34:06,-0.01,0.82,0.00,26.95,30.66,32.90,9.38,40.42,1009.29,2024.05,3149.00,3041.00,3295.98,500.06,486.68,31.29,0000 0000 0000 0000 000000
2014-08-07 08:39:07,0.01,0.82,0.00,26.96,30.70,32.95,9.38,40.60,1009.29,2024.00,3148.96,3040.92,3295.52,500.22,486.96,31.33,0000 0000 0000 0000 000000
2014-08-07 08:44:08,0.04,0.82,0.00,26.98,30.73,32.98,9.40,40.50,1009.30,2024.00,3148.43,3040.31,3295.02,500.52,486.97,31.37,0000 0000 0000 0000 000000
2014-08-07 08:49:10,0.01,0.82,0.00,27.00,30.76,33.02,9.39,40.67,1009.30,2023.99,3148.03,3040.01,3294.90,500.33,486.80,31.41,0000 0000 0000 0000 000000
2014-08-07 08:54:11,0.01,0.82,0.00,27.02,30.80,33.06,9.43,40.55,1009.32,2023.99,3147.98,3040.00,3294.20,499.91,486.60,31.45,0000 0000 0000 0000 000000
2014-08-07 08:59:12,0.00,0.82,0.00,27.04,30.83,33.10,9.44,40.50,1009.39,2023.90,3147.69,3039.89,3294.01,500.43,486.93,31.49,0000 0000 0000 0000 000000
2014-08-07 09:04:13,-0.02,0.83,0.00,27.06,30.86,33.13,9.31,40.38,1009.55,2023.54,3147.05,3039.18,3293.96,500.08,486.84,31.54,0000 0000 0000 0000 000000
2014-08-07 09:09:15,-0.01,0.82,0.00,27.09,30.90,33.15,9.43,40.38,1009.63,2023.11,3146.99,3038.99,3293.35,500.02,486.62,31.58,0000 0000 0000 0000 000000
2014-08-07 09:14:16,0.00,0.82,0.00,27.12,30.93,33.19,9.42,40.43,1009.73,2023.00,3146.95,3038.93,3293.01,500.03,486.59,31.62,0000 0000 0000 0000 000000
2014-08-07 09:19:17,0.04,0.82,0.00,27.15,30.96,33.21,9.31,40.38,1009.73,2023.00,3146.38,3038.33,3293.00,499.83,486.37,31.66,0000 0000 0000 0000 000000
2014-08-07 09:24:18,0.01,0.83,0.00,27.19,30.99,33.24,9.32,40.33,1009.72,2022.99,3146.07,3038.03,3292.73,500.03,486.40,31.71,0000 0000 0000 0000 000000
2014-08-07 09:29:19,0.00,0.83,0.00,27.22,31.02,33.27,9.39,40.34,1009.74,2022.95,3146.00,3038.00,3292.12,500.01,486.33,31.75,0000 0000 0000 0000 000000
2014-08-07 09:34:20,-0.02,0.83,0.00,27.25,31.05,33.31,9.39,40.38,1009.78,2022.65,3145.72,3037.77,3292.00,500.20,486.47,31.79,0000 0000 0000 0000 000000
2014-08-07 09:39:21,-0.01,0.82,0.00,27.29,31.08,33.32,9.34,40.33,1009.78,2022.12,3145.05,3037.07,3291.81,499.92,486.42,31.83,0000 0000 0000 0000 000000
2014-08-07 09:44:22,0.00,0.82,0.00,27.31,31.11,33.35,9.35,40.28,1009.78,2022.05,3145.00,3037.00,3291.26,499.86,486.18,31.87,0000 0000 0000 0000 000000
2014-08-07 09:49:23,0.00,0.82,0.00,27.32,31.14,33.38,9.35,40.37,1009.78,2022.01,3144.94,3037.00,3291.01,499.60,485.98,31.91,0000 0000 0000 0000 000000
2014-08-07 09:54:24,0.00,0.82,0.00,27.35,31.17,33.42,9.40,40.35,1009.78,2022.00,3144.75,3036.87,3290.99,500.30,486.52,31.96,0000 0000 0000 0000 000000
2014-08-07 09:59:25,0.04,0.83,0.00,27.40,31.20,33.44,9.38,40.25,1009.79,2022.00,3144.16,3036.31,3290.73,499.93,486.00,32.00,0000 0000 0000 0000 000000
2014-08-07 10:04:26,0.01,0.83,0.00,27.42,31.23,33.47,9.45,40.38,1009.81,2021.97,3144.01,3036.01,3290.08,500.37,486.48,32.04,0000 0000 0000 0000 000000
2014-08-07 10:09:27,-0.03,0.83,0.00,27.42,31.26,33.51,9.42,40.28,1009.86,2021.72,3143.78,3035.97,3289.98,499.80,485.97,32.08,0000 0000 0000 0000 000000
2014-08-07 10:14:28,-0.01,0.83,0.00,27.43,31.29,33.54,9.41,40.18,1010.09,2021.17,3143.12,3035.60,3289.68,500.03,486.38,32.12,0000 0000 0000 0000 000000
2014-08-07 10:19:29,0.01,0.83,0.00,27.45,31.32,33.56,9.34,40.27,1010.19,2021.06,3143.00,3035.11,3289.12,500.14,486.39,32.16,0000 0000 0000 0000 000000
2014-08-07 10:24:30,-0.00,0.83,0.00,27.45,31.35,33.58,9.39,40.29,1010.26,2021.01,3142.99,3035.00,3289.00,500.02,486.27,32.21,0000 0000 0000 0000 000000
2014-08-07 10:29:31,0.00,0.83,0.00,27.45,31.37,33.61,9.39,40.27,1010.27,2021.00,3142.86,3034.99,3288.98,500.13,486.28,32.25,0000 0000 0000 0000 000000
2014-08-07 10:34:32,0.01,0.83,0.00,27.46,31.39,33.64,9.38,40.18,1010.27,2021.00,3142.54,3034.96,3288.91,500.19,486.29,32.29,0000 0000 0000 0000 000000
2014-08-07 10:39:33,0.01,0.83,0.00,27.43,31.41,33.66,9.38,40.20,1010.27,2020.99,3142.24,3034.82,3288.55,500.03,486.39,32.33,0000 0000 0000 0000 000000
2014-08-07 10:44:35,0.03,0.83,0.00,27.43,31.43,33.69,9.38,40.19,1010.27,2020.95,3142.01,3034.25,3288.06,500.08,486.50,32.37,0000 0000 0000 0000 000000
2014-08-07 10:49:36,-0.01,0.83,0.00,27.43,31.45,33.71,9.43,40.18,1010.28,2020.93,3142.00,3034.06,3288.01,500.23,486.46,32.41,0000 0000 0000 0000 000000
2014-08-07 10:54:37,-0.01,0.83,0.00,27.42,31.47,33.74,9.34,40.15,1010.27,2020.77,3141.96,3034.01,3288.00,500.06,486.34,32.45,0000 0000 0000 0000 000000
2014-08-07 10:59:38,-0.03,0.83,0.00,27.41,31.50,33.76,9.47,40.14,1010.27,2020.30,3141.29,3033.98,3287.84,500.32,486.56,32.50,0000 0000 0000 0000 000000
2014-08-07 11:04:39,0.00,0.83,0.00,27.42,31.51,33.78,9.32,40.09,1010.28,2020.10,3141.03,3033.92,3287.38,499.50,486.01,32.54,0000 0000 0000 0000 000000
2014-08-07 11:09:40,0.01,0.83,0.00,27.42,31.52,33.79,9.33,40.12,1010.28,2020.07,3141.00,3033.62,3287.10,499.89,486.22,32.58,0000 0000 0000 0000 000000
2014-08-07 11:14:41,0.01,0.83,0.00,27.43,31.54,33.80,9.39,40.12,1010.31,2020.02,3140.99,3033.15,3287.01,499.41,485.73,32.62,0000 0000 0000 0000 000000
2014-08-07 11:19:43,0.00,0.83,0.00,27.41,31.55,33.82,9.36,40.08,1010.35,2020.00,3140.96,3033.03,3287.00,499.94,486.56,32.66,0000 0000 0000 0000 000000
2014-08-07 11:24:43,0.00,0.83,0.00,27.42,31.57,33.83,9.40,40.13,1010.48,2020.00,3140.70,3033.00,3286.96,499.98,486.41,32.70,0000 0000 0000 0000 000000
2014-08-07 11:29:45,0.01,0.83,0.00,27.42,31.57,33.83,9.45,40.20,1010.32,2020.00,3140.25,3033.00,3286.88,500.27,486.63,32.75,0000 0000 0000 0000 000000
2014-08-07 11:34:46,0.01,0.83,0.00,27.43,31.60,33.84,9.42,40.23,1010.31,2020.00,3140.01,3032.99,3286.34,500.12,486.38,32.79,0000 0000 0000 0000 000000
2014-08-07 11:39:47,0.00,0.83,0.00,27.46,31.60,33.85,9.51,40.19,1010.37,2020.00,3140.00,3032.94,3286.09,500.23,486.66,32.83,0000 0000 0000 0000 000000
2014-08-07 11:44:48,0.02,0.83,0.00,27.49,31.61,33.86,9.38,40.16,1010.47,2019.99,3139.92,3032.44,3286.00,500.26,486.48,32.87,0000 0000 0000 0000 000000
2014-08-07 11:49:49,0.01,0.83,0.00,27.53,31.62,33.86,9.47,40.17,1010.70,2019.98,3139.59,3032.10,3285.99,500.05,486.52,32.91,0000 0000 0000 0000 000000
2014-08-07 11:54:51,0.00,0.83,0.00,27.59,31.63,33.87,9.32,39.93,1010.75,2019.96,3139.14,3032.02,3285.97,499.64,485.99,32.95,0000 0000 0000 0000 000000
2014-08-07 11:59:52,0.00,0.83,0.00,27.64,31.65,33.88,9.40,40.02,1010.76,2019.97,3139.01,3032.00,3285.87,500.12,486.46,33.00,0000 0000 0000 0000 000000
2014-08-07 12:04:53,-0.00,0.83,0.00,27.65,31.65,33.89,9.39,39.95,1010.76,2019.95,3139.00,3032.00,3285.71,499.86,486.07,33.04,0000 0000 0000 0000 000000
2014-08-07 12:09:55,0.00,0.83,0.00,27.64,31.66,33.91,9.37,39.96,1010.76,2019.92,3139.00,3032.00,3285.26,499.74,486.07,33.08,0000 0000 0000 0000 000000
2014-08-07 12:14:56,-0.01,0.83,0.00,27.62,31.67,33.91,9.36,40.02,1010.76,2019.89,3138.97,3032.00,3285.03,499.85,486.29,33.12,0000 0000 0000 0000 000000
2014-08-07 12:19:56,0.01,0.83,0.00,27.56,31.67,33.94,9.41,40.03,1010.76,2019.93,3138.98,3031.98,3285.04,500.07,486.27,33.16,0000 0000 0000 0000 000000
2014-08-07 12:24:57,-0.01,0.83,0.00,27.51,31.68,33.94,9.43,39.98,1010.77,2019.82,3138.96,3031.97,3285.01,500.22,486.68,33.20,0000 0000 0000 0000 000000
2014-08-07 12:29:58,-0.00,0.83,0.00,27.47,31.70,33.94,9.36,40.04,1010.81,2019.73,3138.86,3031.95,3285.00,499.80,486.36,33.24,0000 0000 0000 0000 000000
2014-08-07 12:34:59,-0.01,0.83,0.00,27.44,31.70,33.96,9.39,39.86,1011.07,2019.54,3138.41,3031.72,3285.00,499.97,486.69,33.29,0000 0000 0000 0000 000000
2014-08-07 12:40:00,0.00,0.83,0.00,27.41,31.70,33.96,9.53,40.03,1011.20,2019.39,3138.07,3031.38,3284.99,500.36,487.27,33.33,0000 0000 0000 0000 000000
2014-08-07 12:45:01,-0.01,0.83,0.00,27.40,31.70,33.97,9.45,39.97,1011.24,2019.21,3138.03,3031.24,3284.95,500.29,487.12,33.37,0000 0000 0000 0000 000000
2014-08-07 12:50:03,0.01,0.83,0.00,27.39,31.71,33.99,9.34,39.85,1011.24,2019.15,3138.00,3031.08,3284.83,499.46,486.31,33.41,0000 0000 0000 0000 000000
2014-08-07 12:55:04,-0.01,0.83,0.00,27.38,31.72,34.00,9.47,39.90,1011.24,2019.10,3138.00,3031.04,3284.69,500.22,487.08,33.45,0000 0000 0000 0000 000000
2014-08-07 13:00:05,0.01,0.83,0.00,27.34,31.72,33.98,9.31,39.89,1011.24,2019.12,3138.00,3031.02,3284.47,499.53,486.37,33.49,0000 0000 0000 0000 000000